Location: Krakow
(50.0830°N, 19.9170°E)
Time: 19:00:55
(UTC+01:00)

Transit 2A - Pass Details

Date: 08 February 2023
Orbit: 591 x 964 km, 66.7° (Epoch: 21 March)

Event Time Altitude Azimuth Distance (km) Brightness Sun altitude
Rises 01:30:10 0° 316° (NW) 3,525 - -50.0°
Reaches altitude 10° 01:32:59 10° 305° (NW) 2,625 - -49.8°
Maximum altitude 01:38:00 27° 250° (WSW) 1,755 - -49.2°
Drops below altitude 10° 01:43:08 10° 196° (SSW) 2,694 - -48.7°
Sets 01:46:05 0° 185° (S) 3,635 - -48.4°
